Showing default

GSTAR 3, 19483

Orbit data source: Space-Track

GSTAR 3, 19483 is a payload satellite owned by GTE (US) in GEO that was launched on Thu, 08 Sep 1988 UTC via an ARIANE 3 launch vehicle from the French Guiana (FRGUI). Payload-class satellites include a variety of spacecraft equipped with specific instruments for various scientific and technological missions. These include communications satellites like Starlink; space stations such as the ISS; scientific satellites like the Hubble; Earth observation satellites from companies like Planet Labs, Umbra, and HawkEye 360; GPS; miniature CubeSats for education and research; and military/defense satellites.

Loading next visibility...
Identifier
19483, 1988-081A
Orbit
GEO
Country
Flag of USUS
Related business
Manufacturer
GE/East Windsor
Mission
Commercial Communications
Bus & Motor
AS3000, TE-M-700-17
Mass
1,243 kg wet, ~370 kg dry
Launch date (UTC)
1988-09-08 (37 years ago)
Launch vehicle
ARIANE 3
Launch site
French Guiana (FRGUI)
Object type
Payload
Rocket body
Debris
Shape & HBR
Box + 2 Pan, 7.2 m
Radar Cross Section
6.702 m², Large (>1 m²)

Expand to show TLE details & history
Last TLE update: 7 hours ago

TLE from 7 hours ago
0 GSTAR 3
1 19483U 88081A   25308.08683623 -.00000109  00000-0  00000+0 0  9994
2 19483  11.4744 320.0827 0007644 221.1926 148.4033  1.00272203132347
Epoch: 2025-11-04T02:05Z
TLE epoch observation values (Epoch: 2025-11-04T02:05:02.650Z)
Latitude
1.92453°
Longitude
-105.33394°
Altitude
35,813.195 km
Speed
3.073 km/s
True Right ascension
21h 58m 01s
True Declination
1° 55' 21"
Sunlit
Object was in daylight at epoch
Visualization orbit readout
Latitude
Unknown
Longitude
Unknown
Altitude
Unknown
Speed
Unknown
Apparent Right ascension
Unknown
Apparent Declination
Unknown
Sunlit
N/A
Visualization observer readout
Local Sidereal Time
04:58:19
Azimuth
Unknown
Elevation
Unknown
Doppler factor
Unknown
Orbital elements
Apogee altitude
35,819.718 km
Perigee altitude
35,755.255 km
Semi-major axis
42,165.623 km
Eccentricity
0.00076
Inclination
11.4744°
RAAN
320.0827°
Arg. of periapsis
221.1926°
True anomaly
148.44916°
Mean anomaly
148.4033°
Eccentric anomaly
148.42623°
Mean motion
0.25067 °/min
Orbital period
1,436.14 mins
BSTAR
0
Loading maneuver chart data...
Computing Atmospheric mass density...
Loading historical data...
Loading historical data...
Loading historical data...
Loading historical data...
Loading historical data...
Loading historical data...
Loading historical data...

Documentation

Showing up to 5 results
|